EHI
0 0 0 0 0 0 0 0 0 0 0 0 1 3 6 8 6 4 6 13 20 25 26 23 19 19 23 29 32 33 32 31 32 28 20 14 10 6 4 2 1 1 1 1
0 0 0 0 0 0 0 0 0 0 0 0 0 2 5 7 6 5 6 11 19 26 29 28 25 25 29 34 35 35 34 32 31 30 23 16 10 7 6 4 2 2 3 3
0 0 0 0 0 0 0 0 0 0 0 0 0 2 5 8 9 9 8 11 18 26 32 34 35 36 36 38 38 36 36 34 31 28 24 18 14 11 8 6 4 3 4 5
0 0 0 0 0 0 0 0 0 0 0 0 0 2 5 9 13 15 14 14 18 25 32 37 41 42 40 37 35 36 38 36 32 26 21 19 17 13 9 5 4 3 4 5
0 0 0 0 0 0 0 0 0 0 0 0 0 0 2 6 11 17 18 18 19 24 31 36 38 40 38 32 30 34 38 37 32 27 22 20 19 15 9 5 4 5 4 4
0 0 0 0 0 0 0 0 0 0 0 0 0 0 0 2 5 12 19 22 23 27 33 35 36 37 34 30 27 30 33 34 32 29 25 23 22 18 13 9 7 6 5 4
0 0 0 0 0 0 0 0 0 0 0 0 0 0 0 1 2 7 16 22 25 28 34 38 39 39 36 33 29 29 32 33 32 32 30 26 23 20 17 12 9 7 6 5
0 0 0 0 0 0 0 0 0 0 0 0 0 0 1 1 2 3 10 17 22 26 34 39 40 39 39 37 34 34 36 36 34 33 31 26 23 20 18 14 10 8 7 7
0 0 0 0 0 0 0 0 0 0 0 0 0 0 1 2 2 3 8 16 22 27 33 38 38 37 37 37 37 38 39 39 37 34 28 24 23 22 20 17 13 10 11 11
0 0 0 0 0 0 0 0 0 0 0 0 0 0 1 3 5 7 12 21 28 31 35 39 38 36 36 37 39 38 39 40 38 33 27 24 24 25 23 20 16 13 12 13
0 0 0 0 0 0 0 0 0 0 0 0 0 0 1 4 8 11 18 26 32 34 38 41 40 38 38 38 39 39 39 38 36 33 30 27 26 25 24 21 17 15 13 12
0 0 0 0 0 0 0 0 0 0 0 0 0 1 2 5 8 13 22 32 37 39 43 45 43 41 39 38 39 42 41 38 35 35 35 32 28 25 23 21 18 15 14 13
0 0 0 0 0 0 0 0 0 0 0 0 0 1 2 5 10 16 25 37 44 47 50 50 45 41 37 36 38 42 41 37 35 36 37 35 30 27 25 22 18 17 16 16
0 0 0 0 0 0 0 0 0 0 0 0 0 1 2 6 12 20 30 41 48 52 54 51 46 40 38 38 39 40 40 37 35 36 38 36 32 29 26 23 20 18 17 16
0 0 0 0 0 0 0 0 0 0 0 0 0 0 3 7 14 24 35 43 49 53 54 52 47 44 45 45 42 40 40 40 39 39 38 35 31 28 25 24 22 19 17 16
0 0 0 0 0 0 0 0 0 0 0 0 0 1 4 10 17 28 40 48 51 54 56 56 51 49 51 49 44 42 43 44 44 42 38 33 29 25 22 23 22 19 17 16
0 0 0 0 0 0 0 0 0 0 0 1 2 4 7 13 22 33 45 51 53 55 59 60 54 52 53 51 45 44 45 46 46 42 34 28 25 22 21 21 20 18 16 15
0 0 0 0 0 0 0 0 0 0 1 4 7 9 12 18 27 37 44 50 54 59 62 60 55 53 54 52 47 44 43 45 44 38 31 24 21 20 20 20 19 16 14 13
0 0 0 0 0 0 0 0 0 1 2 6 10 14 19 22 26 35 44 50 56 63 64 60 55 54 56 53 47 42 42 43 40 34 29 24 20 19 20 19 18 17 15 13
0 0 0 0 0 0 0 0 0 1 3 8 13 20 25 26 30 42 51 53 56 61 62 60 58 58 59 55 46 41 40 40 37 32 29 24 20 19 20 20 18 16 14 12
0 0 0 0 0 1 1 1 2 7 14 19 23 29 33 37 43 51 56 55 52 54 58 61 61 62 62 55 47 42 39 36 34 30 27 23 20 19 20 20 17 14 11 9
0 0 0 0 0 1 5 9 15 25 34 34 34 37 41 45 48 50 52 51 48 48 54 60 62 61 58 52 48 45 38 33 29 25 22 20 19 18 17 17 15 13 9 7
0 1 2 2 2 4 12 23 32 40 45 43 40 40 41 43 45 45 44 45 45 48 53 58 58 55 49 46 47 44 36 29 25 21 18 17 16 15 14 14 13 12 9 6
1 2 4 6 8 12 21 32 39 41 41 39 38 38 38 41 44 43 41 42 44 47 51 54 52 48 43 40 39 38 34 28 24 21 18 15 14 14 13 12 12 11 7 5
1 2 6 10 14 20 28 35 37 38 36 34 34 34 35 39 41 39 39 40 40 41 44 46 44 41 37 33 30 31 30 27 24 21 19 17 14 13 12 11 9 8 5 4
1 3 6 11 16 23 32 37 36 37 37 34 33 32 32 35 36 35 36 37 35 36 38 39 38 35 31 27 26 26 26 24 23 22 21 18 15 12 11 9 7 5 3 2
Wind_Speed
5 9 8 5 3 0 2 3 3 3 3 6 6 4 6 9 10 9 10 10 10 9 8 8 8 7 7 7 7 7 7 6 5 4 4 3 4 3 3 3 3 3 4 3
9 10 5 4 4 4 5 5 4 5 3 4 4 4 5 8 9 9 9 9 9 9 9 8 8 8 8 8 7 7 7 6 6 4 3 2 2 2 3 2 2 4 4 4
12 6 6 7 8 7 6 4 2 3 4 5 5 6 6 7 8 8 9 9 9 9 9 9 9 8 8 7 7 6 6 6 6 5 3 3 2 3 3 3 3 3 3 3
9 6 7 9 9 9 6 2 2 4 6 3 4 2 6 7 9 9 9 9 9 9 9 9 9 8 8 7 7 7 6 6 5 5 4 4 3 3 2 2 2 2 3 3
9 8 10 10 7 7 2 3 3 4 5 4 3 6 4 6 6 8 8 9 8 9 9 9 9 8 8 7 7 6 6 5 5 4 4 4 3 2 2 2 2 2 2 3
6 5 7 6 4 4 7 7 4 6 7 6 1 6 1 3 2 4 7 9 9 9 9 9 8 8 8 7 7 7 6 5 5 4 4 4 3 2 2 2 2 2 1 2
10 9 7 6 8 8 10 9 7 8 7 3 2 5 1 3 1 2 5 8 9 10 10 10 10 10 9 8 7 7 6 5 5 4 4 4 3 3 3 2 2 2 1 1
14 14 12 10 11 10 12 12 8 6 5 4 5 4 2 3 2 3 5 7 9 10 10 10 10 10 9 9 8 7 6 5 4 4 3 2 2 2 1 1 2 1 1 2
12 11 9 7 6 8 12 11 7 6 5 5 3 3 3 4 5 6 7 8 9 10 10 11 10 10 9 9 8 7 7 6 5 4 4 3 2 1 1 1 1 1 1 1
7 9 11 9 8 2 6 8 6 8 6 7 5 6 4 5 5 7 8 9 9 10 10 10 10 10 9 9 8 7 7 6 5 5 4 3 3 2 1 1 0 1 1 1
8 9 11 12 13 13 9 9 8 7 7 7 5 3 4 3 4 5 7 8 9 9 9 10 9 9 9 9 8 8 7 6 5 5 4 3 2 2 2 1 0 0 0 1
10 8 10 11 5 5 12 12 11 8 7 7 7 2 6 2 3 4 6 8 8 8 9 9 10 10 10 9 8 8 7 6 6 5 5 4 3 2 2 2 1 1 1 1
9 8 10 11 10 8 10 10 12 11 8 8 9 4 7 3 3 4 6 8 8 9 9 9 10 9 9 8 8 7 7 6 6 6 5 4 4 3 2 2 2 2 2 1
8 9 12 12 10 13 13 11 12 12 9 9 10 5 4 3 3 5 6 8 9 9 9 9 9 8 8 7 7 7 6 6 6 6 6 5 4 3 3 3 2 2 2 3
8 10 10 8 5 9 12 13 13 14 12 11 8 8 5 2 2 4 6 8 9 9 9 9 9 9 8 8 7 7 6 6 6 6 6 5 5 4 4 4 3 3 3 4
6 7 9 9 8 10 10 11 12 12 11 11 9 6 1 2 3 5 6 8 9 9 9 9 9 9 9 8 8 8 7 7 7 6 6 6 6 5 5 5 5 5 5 5
9 8 10 10 10 11 13 11 12 11 10 10 10 5 2 3 3 4 5 7 8 9 9 9 8 8 8 8 8 8 8 8 7 7 6 7 6 6 5 5 6 5 5 5
8 9 8 9 10 14 7 5 8 9 8 7 5 2 1 2 2 2 3 5 6 7 8 8 7 8 8 8 9 8 9 8 8 7 7 6 6 6 6 6 5 5 5 5
7 9 9 9 12 11 6 6 8 9 7 5 5 3 2 4 4 4 3 3 5 6 7 7 7 8 9 9 9 9 9 9 8 7 6 6 6 7 7 6 6 5 5 5
7 8 9 10 13 12 7 6 4 7 8 4 4 4 4 5 6 4 4 3 4 6 6 7 7 8 9 8 9 9 9 8 7 6 6 6 5 6 7 7 6 6 5 5
10 9 12 12 11 6 4 5 7 10 3 3 3 3 3 2 3 4 4 5 5 6 7 8 8 8 7 8 9 9 8 7 6 7 7 7 7 7 7 7 6 6 6 6
9 9 10 11 12 6 4 6 5 2 3 2 2 2 2 3 5 5 5 6 6 7 7 8 8 7 7 7 8 8 7 7 7 7 7 7 7 6 7 7 6 6 6 7
4 2 3 3 1 5 2 2 3 2 2 2 2 3 4 5 5 5 5 6 6 7 7 7 8 8 6 5 6 7 7 7 8 8 7 7 7 6 6 7 7 6 5 4
4 1 2 2 3 2 2 2 2 1 2 2 2 3 4 5 5 6 5 5 5 6 7 6 7 7 6 5 5 6 7 7 8 8 8 7 7 7 6 4 4 4 4 4
2 4 3 3 3 3 3 1 2 2 2 3 4 4 5 6 5 5 5 5 5 5 5 6 6 6 6 5 5 6 6 7 8 8 7 7 7 6 6 4 3 2 3 2
2 3 4 1 2 1 3 2 1 2 3 3 4 4 5 5 5 5 5 4 4 5 5 5 5 6 6 5 5 5 6 6 8 7 7 6 6 6 6 6 5 9 7 7
Wind_Direction
204 218 207 189 223 339 203 217 164 117 142 218 222 209 171 175 192 189 188 188 189 190 183 181 184 187 188 190 194 202 208 198 201 203 208 205 209 214 219 231 233 247 257 253
205 210 183 160 179 207 210 214 172 135 146 235 230 221 184 188 199 200 197 193 194 185 179 180 184 187 190 191 195 199 203 200 201 198 208 217 234 235 229 244 238 245 249 253
218 165 156 187 189 205 213 231 189 141 161 201 247 200 181 185 195 199 205 202 197 192 185 182 186 189 187 189 192 192 196 198 202 199 204 207 208 231 224 232 237 245 248 248
217 165 189 202 202 219 201 200 214 188 220 176 265 249 150 177 191 200 201 199 197 187 184 184 182 181 183 185 182 186 188 193 191 193 207 214 219 229 235 245 250 256 246 250
189 186 198 207 203 221 164 147 196 219 244 250 223 278 124 164 197 196 194 193 190 181 180 181 179 175 176 176 173 174 176 180 183 192 199 217 227 230 231 230 237 256 245 246
175 182 215 208 179 181 146 159 174 222 241 239 254 277 152 135 187 171 173 182 183 176 174 171 168 166 168 167 168 168 168 173 177 185 193 211 221 235 250 253 262 252 240 236
192 191 187 192 171 170 199 203 208 214 222 222 134 259 48 72 70 163 162 168 175 174 171 167 167 166 166 167 167 163 163 169 175 179 190 202 214 220 231 250 258 280 278 265
196 194 189 197 212 194 209 223 236 247 238 187 179 240 98 86 93 147 155 155 161 165 166 165 166 167 167 168 168 163 162 168 170 172 181 190 203 218 220 243 286 291 304 312
204 195 171 194 218 229 199 224 251 250 262 262 202 194 162 154 149 149 149 152 156 160 162 164 167 168 167 167 166 164 163 162 162 165 167 162 169 200 175 170 237 272 305 299
216 196 174 167 177 194 251 211 213 242 242 244 218 221 188 164 155 157 158 159 154 156 158 161 165 166 165 163 159 162 162 162 162 163 167 153 160 168 176 193 22 5 346 338
219 206 175 185 206 190 184 202 218 234 253 257 237 191 98 141 155 168 165 160 157 158 157 158 161 161 160 158 157 160 161 162 161 157 155 151 151 155 157 151 124 67 18 4
210 221 195 190 182 257 217 210 204 218 219 248 267 159 100 117 148 162 158 154 155 155 153 154 155 157 159 159 160 162 162 162 160 154 151 149 145 139 136 115 98 89 73 38
187 210 195 185 186 193 212 215 222 231 222 230 242 190 122 144 147 145 149 151 153 156 153 153 155 159 161 162 161 158 162 160 156 151 151 146 139 132 125 112 104 90 78 64
207 219 227 216 200 188 196 200 216 224 226 226 238 242 173 181 160 145 146 153 155 154 154 156 157 159 156 156 155 157 161 156 154 153 150 142 133 124 119 111 106 95 86 81
216 215 224 242 216 204 206 204 208 225 239 244 232 235 235 210 161 148 152 157 157 157 157 158 161 155 156 154 155 155 154 152 151 152 148 141 133 122 118 114 108 103 94 87
213 220 206 212 210 213 215 212 212 222 234 241 243 236 202 120 146 152 160 165 168 166 164 162 161 159 159 157 156 153 152 151 153 151 145 138 132 129 125 111 98 91 86 80
194 207 209 208 201 210 217 214 213 216 224 232 231 224 151 168 165 167 172 175 175 171 168 165 164 161 159 158 154 152 148 146 146 146 145 140 139 133 124 117 112 107 100 94
204 209 217 213 200 221 217 207 220 221 221 232 249 249 212 184 158 158 172 177 176 171 167 163 160 155 154 151 148 145 142 142 144 146 146 143 142 132 124 121 115 111 109 102
209 208 220 219 215 215 182 187 206 213 217 221 231 219 170 143 159 135 113 156 171 166 161 157 154 147 145 145 144 146 145 144 146 147 145 145 144 135 130 127 124 119 116 110
185 215 223 219 228 220 189 166 200 222 211 191 209 204 181 189 219 138 113 128 138 140 142 144 139 134 136 141 145 147 146 147 149 146 139 137 137 134 133 130 128 124 123 118
183 198 218 220 226 220 117 143 184 215 180 134 185 189 191 195 4 90 115 116 120 128 135 136 132 130 134 140 146 148 147 148 145 137 134 134 135 135 132 129 129 129 127 118
203 199 208 220 226 197 117 178 204 53 56 102 128 140 142 112 105 110 106 111 120 127 130 131 126 123 128 141 148 147 146 143 139 139 139 137 139 137 134 133 134 137 137 134
232 279 233 245 242 72 97 78 57 54 72 79 94 111 125 127 122 112 104 108 116 124 127 127 125 123 124 133 144 144 141 143 143 142 140 139 138 134 138 142 145 148 151 149
158 209 210 184 133 110 123 108 84 62 65 78 105 122 130 126 122 114 109 111 117 123 130 129 128 125 125 129 131 136 142 146 147 145 144 145 143 139 133 138 146 148 149 151
141 192 194 188 149 152 144 96 68 84 96 104 108 116 123 123 121 115 112 111 114 117 120 124 128 129 126 126 128 134 139 148 148 145 146 147 144 139 135 124 90 114 91 64
205 224 234 191 146 209 119 78 85 122 119 114 116 115 111 116 118 114 108 110 116 120 121 125 128 127 128 132 131 133 141 150 151 149 153 151 147 146 144 137 116 57 67 72